DW1389 Weather Reports


Display with metric or nautical units.
time (UTC)temp
F
wind
direction
speed
MPH
gust
MPH
rain 1hr
in
rain 24hr
in
rain mn
in
humidity
%
barometer
mb
20260902101629 79 266 2.0 3.0 0.00 0.00 0.00 78 1013.7
20260902101130 79 232 2.0 3.0 0.00 0.00 0.00 78 1013.7
20260902100628 78 257 2.0 2.0 0.00 0.00 0.00 78 1013.7
20260902100128 78 255 2.0 2.0 0.00 0.00 0.00 79 1013.7
20260902095628 78 276 1.0 2.0 0.00 0.00 0.00 80 1013.8
20260902095129 77 254 0.0 1.0 0.00 0.00 0.00 80 1013.8
20260902094631 78 163 0.0 1.0 0.00 0.00 0.00 79 1013.8
20260902094129 78 0 0.0 0.0 0.00 0.00 0.00 79 1013.9
20260902093628 78 319 0.0 1.0 0.00 0.00 0.00 78 1013.9
20260902093355 78 172 0.0 2.0 0.00 0.00 0.00 78 1014.0
20260902092628 78 203 0.0 2.0 0.00 0.00 0.00 78 1013.9
20260902092129 78 0 0.0 1.0 0.00 0.00 0.00 78 1013.9
20260902091630 78 0 0.0 1.0 0.00 0.00 0.00 78 1013.9
20260902091132 78 0 0.0 0.0 0.00 0.00 0.00 78 1013.9
20260902090631 79 0 0.0 0.0 0.00 0.00 0.00 77 1013.9
20260902090130 79 0 0.0 2.0 0.00 0.00 0.00 77 1013.9
20260902085629 79 0 0.0 2.0 0.00 0.00 0.00 77 1014.0
20260902085130 79 51 0.0 2.0 0.00 0.00 0.00 77 1014.0
20260902084629 79 263 0.0 2.0 0.00 0.00 0.00 77 1014.0
20260902084352 79 185 1.0 2.0 0.00 0.00 0.00 77 1013.9
20260902084337 79 303 0.0 2.0 0.00 0.00 0.00 77 1014.0
20260902083129 79 293 1.0 2.0 0.00 0.00 0.00 76 1013.9
20260902082628 79 0 1.0 4.0 0.00 0.00 0.00 76 1014.0
20260902082129 79 134 1.0 4.0 0.00 0.00 0.00 76 1014.0
20260902081629 79 106 1.0 2.0 0.00 0.00 0.00 76 1014.0
20260902081128 79 137 1.0 4.0 0.00 0.00 0.00 76 1014.1
20260902080628 79 19 1.0 4.0 0.00 0.00 0.00 76 1014.1
20260902080351 79 116 1.0 4.0 0.00 0.00 0.00 76 1014.2
20260902075858 79 74 1.0 2.0 0.00 0.00 0.00 76 1014.2
20260902075353 79 96 2.0 4.0 0.00 0.00 0.00 75 1014.2
20260902075123 79 62 1.0 4.0 0.00 0.00 0.00 75 1014.3
20260902074129 80 7 1.0 3.0 0.00 0.00 0.00 75 1014.3
20260902073629 80 300 1.0 3.0 0.00 0.00 0.00 75 1014.4
20260902073128 80 346 1.0 3.0 0.00 0.00 0.00 75 1014.4
20260902072615 80 42 1.0 3.0 0.00 0.00 0.00 74 1014.4
20260902072115 80 64 1.0 2.0 0.00 0.00 0.00 74 1014.4
20260902071616 80 107 1.0 2.0 0.00 0.00 0.00 74 1014.4
20260902071116 80 101 0.0 2.0 0.00 0.00 0.00 74 1014.3
20260902070616 80 0 0.0 1.0 0.00 0.00 0.00 74 1014.4
20260902070115 80 0 0.0 1.0 0.00 0.00 0.00 73 1014.4
20260902065601 80 0 0.0 1.0 0.00 0.00 0.00 73 1014.4
20260902065331 80 0 0.0 1.0 0.00 0.00 0.00 73 1014.4
20260902064601 80 0 0.0 1.0 0.00 0.00 0.00 72 1014.4
20260902064101 81 76 0.0 1.0 0.00 0.00 0.00 72 1014.4
20260902063602 81 309 1.0 2.0 0.00 0.00 0.00 71 1014.5
20260902063102 81 83 1.0 2.0 0.00 0.00 0.00 71 1014.5
20260902062602 81 96 1.0 2.0 0.00 0.00 0.00 71 1014.5
20260902062106 81 92 1.0 2.0 0.00 0.00 0.00 71 1014.5
20260902061324 81 262 1.0 2.0 0.00 0.00 0.00 70 1014.4
20260902060602 81 92 1.0 2.0 0.00 0.00 0.00 70 1014.5
20260902055602 82 0 1.0 3.0 0.00 0.00 0.00 69 1014.5
20260902055102 82 356 1.0 3.0 0.00 0.00 0.00 69 1014.5
20260902054602 82 89 1.0 3.0 0.00 0.00 0.00 68 1014.4
20260902054102 83 153 1.0 3.0 0.00 0.00 0.00 68 1014.4
20260902053602 83 123 1.0 3.0 0.00 0.00 0.00 67 1014.2
20260902053324 83 312 1.0 2.0 0.00 0.00 0.00 66 1014.2
20260902052602 83 80 1.0 2.0 0.00 0.00 0.00 66 1014.2
20260902052102 83 0 1.0 2.0 0.00 0.00 0.00 65 1014.1
20260902051602 83 150 1.0 3.0 0.00 0.00 0.00 65 1014.2
20260902051105 84 82 1.0 3.0 0.00 0.00 0.00 65 1014.2
20260902050602 84 60 1.0 3.0 0.00 0.00 0.00 64 1014.2
20260902045601 84 91 1.0 3.0 0.00 0.00 0.00 63 1014.3
20260902045102 84 214 1.0 2.0 0.00 0.00 0.00 62 1014.3
20260902044602 85 349 1.0 3.0 0.00 0.00 0.00 62 1014.3
20260902044102 85 54 1.0 3.0 0.00 0.00 0.00 62 1014.3
20260902043602 85 0 1.0 3.0 0.00 0.00 0.00 62 1014.3
20260902043330 85 43 1.0 3.0 0.00 0.00 0.00 62 1014.3
20260902042601 85 39 2.0 3.0 0.00 0.00 0.00 62 1014.3
20260902042103 85 70 2.0 3.0 0.00 0.00 0.00 62 1014.3
20260902041603 86 111 2.0 4.0 0.00 0.00 0.00 62 1014.3
20260902041102 86 76 2.0 4.0 0.00 0.00 0.00 62 1014.2
20260902040604 86 265 2.0 4.0 0.00 0.00 0.00 62 1014.2
20260902035549 86 135 2.0 3.0 0.00 0.00 0.00 61 1014.1
20260902035048 86 112 1.0 3.0 0.00 0.00 0.00 61 1014.0
20260902034532 86 173 1.0 3.0 0.00 0.00 0.00 60 1014.0
20260902034033 87 150 1.0 3.0 0.00 0.00 0.00 60 1013.9
20260902033531 87 145 2.0 3.0 0.00 0.00 0.00 59 1013.8
20260902033030 87 173 2.0 3.0 0.00 0.00 0.00 59 1013.8
20260902032530 87 161 2.0 4.0 0.00 0.00 0.00 59 1013.7
20260902032030 87 120 2.0 4.0 0.00 0.00 0.00 58 1013.6
20260902031503 87 115 1.0 4.0 0.00 0.00 0.00 58 1013.6
20260902031003 87 249 1.0 3.0 0.00 0.00 0.00 57 1013.5
20260902030503 87 134 2.0 3.0 0.00 0.00 0.00 57 1013.5
20260902030002 87 164 2.0 3.0 0.00 0.00 0.00 57 1013.4
20260902025502 88 80 1.0 2.0 0.00 0.00 0.00 57 1013.2
20260902025003 88 173 1.0 3.0 0.00 0.00 0.00 56 1013.1
20260902024502 88 78 1.0 3.0 0.00 0.00 0.00 56 1013.1
20260902024002 88 45 1.0 3.0 0.00 0.00 0.00 55 1013.0
20260902023504 88 77 1.0 4.0 0.00 0.00 0.00 55 1012.9
20260902023001 89 27 1.0 4.0 0.00 0.00 0.00 55 1012.8
20260902022501 89 138 1.0 3.0 0.00 0.00 0.00 53 1012.7
20260902021933 89 289 1.0 3.0 0.00 0.00 0.00 53 1012.7
20260902021432 89 146 1.0 2.0 0.00 0.00 0.00 53 1012.6
20260902020932 90 330 1.0 2.0 0.00 0.00 0.00 52 1012.5
20260902020432 90 171 1.0 3.0 0.00 0.00 0.00 52 1012.5
20260902015932 90 107 1.0 3.0 0.00 0.00 0.00 52 1012.4
20260902015431 90 10 1.0 3.0 0.00 0.00 0.00 51 1012.3
20260902014931 90 63 1.0 2.0 0.00 0.00 0.00 51 1012.3
20260902014704 91 154 2.0 3.0 0.00 0.00 0.00 50 1012.2
20260902014432 91 76 2.0 3.0 0.00 0.00 0.00 50 1012.2
20260902013421 91 231 2.0 4.0 0.00 0.00 0.00 49 1012.1
20260902012921 91 144 2.0 4.0 0.00 0.00 0.00 49 1012.1
20260902012421 91 85 2.0 5.0 0.00 0.00 0.00 49 1012.0
20260902011920 92 68 3.0 6.0 0.00 0.00 0.00 49 1012.1
20260902011417 92 30 2.0 6.0 0.00 0.00 0.00 48 1012.0
20260902010917 92 79 2.0 5.0 0.00 0.00 0.00 47 1012.0
20260902010418 92 287 2.0 5.0 0.00 0.00 0.00 46 1011.9
20260902005918 93 22 2.0 5.0 0.00 0.00 0.00 45 1011.9
20260902005417 93 325 3.0 7.0 0.00 0.00 0.00 45 1011.9
20260902004918 93 71 3.0 7.0 0.00 0.00 0.00 45 1011.9
20260902004417 94 30 2.0 5.0 0.00 0.00 0.00 44 1011.9
20260902004159 94 70 2.0 5.0 0.00 0.00 0.00 44 1012.0
20260902003414 94 355 2.0 5.0 0.00 0.00 0.00 44 1012.0
20260902002912 94 35 2.0 5.0 0.00 0.00 0.00 43 1012.0
20260902002413 94 136 2.0 6.0 0.00 0.00 0.00 43 1012.0
20260902001912 95 46 2.0 6.0 0.00 0.00 0.00 43 1012.0
20260902001413 95 73 3.0 6.0 0.00 0.00 0.00 43 1012.0
20260902000912 95 235 3.0 7.0 0.00 0.00 0.00 43 1012.0
20260902000414 95 4 4.0 8.0 0.00 0.00 0.00 43 1012.0
20260901235911 96 67 4.0 8.0 0.00 0.00 0.00 43 1012.0
20260901235411 96 3 4.0 10.0 0.00 0.00 0.00 42 1011.9
20260901234912 96 81 4.0 10.0 0.00 0.00 0.00 42 1012.0
20260901234412 97 57 4.0 8.0 0.00 0.00 0.00 42 1011.9
20260901233912 97 44 3.0 8.0 0.00 0.00 0.00 41 1011.9
20260901233412 97 55 3.0 6.0 0.00 0.00 0.00 39 1011.8
20260901232912 97 14 3.0 6.0 0.00 0.00 0.00 39 1011.8
20260901232412 97 69 3.0 6.0 0.00 0.00 0.00 39 1011.8
20260901231914 98 45 3.0 6.0 0.00 0.00 0.00 38 1011.8
20260901231410 98 27 2.0 6.0 0.00 0.00 0.00 39 1011.8
20260901230909 98 9 2.0 6.0 0.00 0.00 0.00 39 1011.9
20260901230409 97 24 3.0 8.0 0.00 0.00 0.00 39 1011.9
20260901225909 97 42 3.0 8.0 0.00 0.00 0.00 40 1011.9
20260901225410 98 78 3.0 8.0 0.00 0.00 0.00 40 1012.0
20260901224911 97 92 3.0 6.0 0.00 0.00 0.00 41 1012.0
20260901224411 97 23 2.0 6.0 0.00 0.00 0.00 41 1012.0
20260901223939 97 32 3.0 8.0 0.00 0.00 0.00 41 1012.1
20260901223930 97 24 3.0 6.0 0.00 0.00 0.00 41 1012.0
20260901223151 96 83 2.0 8.0 0.00 0.00 0.00 41 1012.0
20260901222656 96 343 3.0 7.0 0.00 0.00 0.00 42 1012.0
20260901221910 97 139 3.0 7.0 0.00 0.00 0.00 42 1012.0
20260901221411 97 44 3.0 7.0 0.00 0.00 0.00 41 1012.0
20260901220910 98 328 4.0 7.0 0.00 0.00 0.00 41 1012.0
20260901220410 99 49 3.0 7.0 0.00 0.00 0.00 40 1012.0
20260901220200 99 0 3.0 7.0 0.00 0.00 0.00 40 1012.0
20260901215657 99 63 2.0 9.0 0.00 0.00 0.00 39 1012.0
20260901215234 98 103 3.0 9.0 0.00 0.00 0.00 41 1012.0
20260901215225 98 31 3.0 9.0 0.00 0.00 0.00 40 1012.0
20260901213906 98 27 4.0 11.0 0.00 0.00 0.00 41 1012.1
20260901213406 98 89 4.0 11.0 0.00 0.00 0.00 41 1012.1
20260901212907 98 354 2.0 8.0 0.00 0.00 0.00 40 1012.1
20260901212406 98 11 2.0 6.0 0.00 0.00 0.00 41 1012.1
20260901211906 97 147 2.0 6.0 0.00 0.00 0.00 42 1012.2
20260901211650 96 71 2.0 6.0 0.00 0.00 0.00 42 1012.3
20260901210906 96 338 2.0 5.0 0.00 0.00 0.00 43 1012.3
20260901210406 96 22 3.0 9.0 0.00 0.00 0.00 43 1012.4
20260901205946 97 61 3.0 6.0 0.00 0.00 0.00 43 1012.6
20260901205935 96 59 3.0 9.0 0.00 0.00 0.00 43 1012.5
20260901204905 98 39 2.0 6.0 0.00 0.00 0.00 41 1012.6
20260901204407 98 250 2.0 6.0 0.00 0.00 0.00 42 1012.7
20260901204151 99 18 2.0 6.0 0.00 0.00 0.00 40 1012.7
20260901203406 100 33 2.0 6.0 0.00 0.00 0.00 40 1012.8
20260901202903 97 112 1.0 6.0 0.00 0.00 0.00 43 1012.9
20260901202402 96 0 2.0 6.0 0.00 0.00 0.00 43 1012.9
20260901201901 97 46 2.0 6.0 0.00 0.00 0.00 43 1013.0
20260901201441 97 16 2.0 5.0 0.00 0.00 0.00 41 1013.1
20260901201424 98 84 2.0 5.0 0.00 0.00 0.00 41 1013.1
20260901200401 96 11 2.0 6.0 0.00 0.00 0.00 43 1013.2
20260901195901 95 27 2.0 6.0 0.00 0.00 0.00 44 1013.3
20260901195401 96 50 2.0 4.0 0.00 0.00 0.00 44 1013.4
20260901194901 96 89 2.0 6.0 0.00 0.00 0.00 44 1013.5
20260901194625 98 9 2.0 6.0 0.00 0.00 0.00 43 1013.5
20260901193905 97 6 2.0 4.0 0.00 0.00 0.00 43 1013.5
20260901193330 96 243 2.0 6.0 0.00 0.00 0.00 45 1013.6
20260901192830 96 172 2.0 6.0 0.00 0.00 0.00 43 1013.7
20260901192330 97 36 2.0 7.0 0.00 0.00 0.00 43 1013.7
20260901192118 97 289 2.0 7.0 0.00 0.00 0.00 43 1013.8
20260901191329 97 274 2.0 7.0 0.00 0.00 0.00 44 1013.8
20260901190833 98 340 3.0 8.0 0.00 0.00 0.00 44 1013.9
20260901190306 97 85 2.0 2.0 0.00 0.00 0.00 44 1014.1
20260901190228 97 356 2.0 4.0 0.00 0.00 0.00 44 1014.2
20260901185502 97 356 2.0 9.0 0.00 0.00 0.00 44 1014.2
20260901185001 96 45 2.0 9.0 0.00 0.00 0.00 44 1014.2
20260901184502 95 265 2.0 5.0 0.00 0.00 0.00 47 1014.3
20260901184234 95 7 2.0 6.0 0.00 0.00 0.00 47 1014.4
20260901184203 95 9 2.0 6.0 0.00 0.00 0.00 47 1014.4
20260901183002 96 43 2.0 6.0 0.00 0.00 0.00 47 1014.5
20260901182501 96 18 2.0 6.0 0.00 0.00 0.00 47 1014.6
20260901182000 96 0 2.0 6.0 0.00 0.00 0.00 48 1014.7
20260901181501 95 202 2.0 8.0 0.00 0.00 0.00 47 1014.7
20260901181001 95 69 3.0 8.0 0.00 0.00 0.00 47 1014.9
20260901180502 95 80 3.0 7.0 0.00 0.00 0.00 47 1014.9
20260901180002 95 346 2.0 6.0 0.00 0.00 0.00 47 1015.0
20260901175501 95 337 2.0 6.0 0.00 0.00 0.00 47 1015.2
20260901175001 95 331 2.0 7.0 0.00 0.00 0.00 48 1015.3
20260901174502 94 345 3.0 7.0 0.00 0.00 0.00 48 1015.3
20260901174000 94 74 2.0 6.0 0.00 0.00 0.00 48 1015.4
20260901173500 95 3 2.0 4.0 0.00 0.00 0.00 48 1015.4
20260901173003 95 123 2.0 7.0 0.00 0.00 0.00 49 1015.5
20260901172534 94 340 2.0 6.0 0.00 0.00 0.00 50 1015.7
20260901172525 94 324 2.0 7.0 0.00 0.00 0.00 48 1015.6
20260901171502 93 0 2.0 6.0 0.00 0.00 0.00 51 1015.7
20260901171002 93 326 2.0 6.0 0.00 0.00 0.00 51 1015.8
20260901170501 93 20 2.0 6.0 0.00 0.00 0.00 51 1015.9
20260901170242 94 21 2.0 6.0 0.00 0.00 0.00 50 1015.9
20260901165502 94 273 3.0 6.0 0.00 0.00 0.00 50 1016.0
20260901165002 92 338 2.0 6.0 0.00 0.00 0.00 52 1015.9
20260901164505 92 338 2.0 6.0 0.00 0.00 0.00 52 1015.9
20260901164001 92 20 2.0 5.0 0.00 0.00 0.00 53 1016.0
20260901163538 92 150 2.0 6.0 0.00 0.00 0.00 52 1016.0
20260901163526 92 194 2.0 6.0 0.00 0.00 0.00 52 1016.0
20260901162503 92 0 1.0 6.0 0.00 0.00 0.00 53 1016.1
20260901162001 92 280 2.0 7.0 0.00 0.00 0.00 54 1016.2
20260901161501 92 40 2.0 7.0 0.00 0.00 0.00 54 1016.2
20260901161243 92 69 2.0 5.0 0.00 0.00 0.00 56 1016.2
20260901160501 92 107 2.0 5.0 0.00 0.00 0.00 56 1016.2
20260901160002 92 124 1.0 5.0 0.00 0.00 0.00 56 1016.2
20260901155501 92 0 1.0 5.0 0.00 0.00 0.00 56 1016.2
20260901155001 92 87 1.0 5.0 0.00 0.00 0.00 55 1016.2
20260901154501 92 207 1.0 3.0 0.00 0.00 0.00 55 1016.2
20260901154001 91 338 1.0 4.0 0.00 0.00 0.00 57 1016.2
20260901153501 91 154 1.0 4.0 0.00 0.00 0.00 58 1016.2
20260901153001 91 71 1.0 3.0 0.00 0.00 0.00 58 1016.2
20260901152501 90 0 1.0 4.0 0.00 0.00 0.00 58 1016.2
20260901152001 89 0 1.0 5.0 0.00 0.00 0.00 61 1016.2
20260901151501 88 181 1.0 5.0 0.00 0.00 0.00 64 1016.2
20260901151245 89 247 1.0 4.0 0.00 0.00 0.00 62 1016.2
20260901150500 88 183 2.0 4.0 0.00 0.00 0.00 65 1016.2
20260901150001 87 0 2.0 4.0 0.00 0.00 0.00 67 1016.2
20260901145500 87 203 2.0 5.0 0.00 0.00 0.00 66 1016.2
20260901145001 87 173 2.0 5.0 0.00 0.00 0.00 68 1016.2
20260901144502 87 204 1.0 4.0 0.00 0.00 0.00 68 1016.2
20260901144040 86 237 2.0 4.0 0.00 0.00 0.00 71 1016.4
20260901144028 87 214 2.0 4.0 0.00 0.00 0.00 69 1016.3
20260901143001 86 230 1.0 5.0 0.00 0.00 0.00 70 1016.4
20260901142502 85 0 1.0 5.0 0.00 0.00 0.00 73 1016.4
20260901142001 85 221 1.0 4.0 0.00 0.00 0.00 72 1016.5
20260901141745 84 231 2.0 4.0 0.00 0.00 0.00 76 1016.5
20260901141002 83 217 2.0 4.0 0.00 0.00 0.00 75 1016.5
20260901140722 84 233 2.0 4.0 0.00 0.00 0.00 74 1016.5
20260901140248 84 264 1.0 4.0 0.00 0.00 0.00 75 1016.6
20260901135501 84 228 1.0 3.0 0.00 0.00 0.00 74 1016.6
20260901135316 84 217 1.0 4.0 0.00 0.00 0.00 75 1016.5
20260901135312 84 222 1.0 3.0 0.00 0.00 0.00 73 1016.6
20260901134001 84 228 1.0 4.0 0.00 0.00 0.00 75 1016.4
20260901133500 84 179 1.0 2.0 0.00 0.00 0.00 75 1016.4
20260901133234 83 0 1.0 3.0 0.00 0.00 0.00 77 1016.4
20260901132504 82 264 1.0 3.0 0.00 0.00 0.00 79 1016.4
20260901132229 82 234 1.0 3.0 0.00 0.00 0.00 80 1016.4
20260901131501 82 213 1.0 2.0 0.00 0.00 0.00 80 1016.4
20260901131000 81 207 1.0 2.0 0.00 0.00 0.00 81 1016.3
20260901130949 80 0 1.0 2.0 0.00 0.00 0.00 84 1016.2
20260901130001 80 222 1.0 2.0 0.00 0.00 0.00 85 1016.1
20260901125501 79 282 1.0 2.0 0.00 0.00 0.00 85 1016.0
20260901125001 79 0 0.0 1.0 0.00 0.00 0.00 86 1016.0
20260901124501 78 225 0.0 2.0 0.00 0.00 0.00 87 1015.9
20260901124000 78 0 0.0 2.0 0.00 0.00 0.00 87 1015.9
20260901123502 78 189 0.0 1.0 0.00 0.00 0.00 88 1015.9
20260901123003 78 0 1.0 1.0 0.00 0.00 0.00 88 1015.8
20260901122729 78 215 1.0 1.0 0.00 0.00 0.00 88 1015.7
20260901122001 78 195 1.0 2.0 0.00 0.00 0.00 87 1015.6
20260901121504 78 211 1.0 2.0 0.00 0.00 0.00 87 1015.6
20260901121004 78 218 1.0 2.0 0.00 0.00 0.00 87 1015.6
20260901120500 78 223 1.0 2.0 0.00 0.00 0.00 87 1015.6
20260901120227 78 206 1.0 2.0 0.00 0.00 0.00 87 1015.5
20260901115501 78 215 2.0 3.0 0.00 0.00 0.00 87 1015.5
20260901115002 78 223 2.0 3.0 0.00 0.00 0.00 86 1015.4
20260901114728 78 229 2.0 3.0 0.00 0.00 0.00 86 1015.4
20260901114001 78 203 2.0 3.0 0.00 0.00 0.00 86 1015.5
20260901113502 78 219 2.0 3.0 0.00 0.00 0.00 86 1015.6
20260901113001 78 222 1.0 2.0 0.00 0.00 0.00 86 1015.6
20260901112502 78 233 2.0 3.0 0.00 0.00 0.00 86 1015.6
20260901112004 79 239 2.0 3.0 0.00 0.00 0.00 85 1015.5
20260901111725 78 233 1.0 2.0 0.00 0.00 0.00 85 1015.5
20260901111001 79 199 1.0 2.0 0.00 0.00 0.00 85 1015.5
20260901110502 79 239 2.0 4.0 0.00 0.00 0.00 85 1015.5
20260901110004 79 209 2.0 4.0 0.00 0.00 0.00 85 1015.5
20260901105501 79 191 2.0 3.0 0.00 0.00 0.00 85 1015.4
20260901105002 79 186 2.0 3.0 0.00 0.00 0.00 85 1015.4
20260901104503 79 240 2.0 3.0 0.00 0.00 0.00 85 1015.4
20260901104001 79 219 2.0 2.0 0.00 0.00 0.00 85 1015.3
20260901103501 79 245 1.0 2.0 0.00 0.00 0.00 85 1015.2
20260901103232 79 219 1.0 2.0 0.00 0.00 0.00 86 1015.2